Location: Boiro
(42.6475°N, 8.8834°W)
Time: 23:36:20
(UTC+01:00)

A-11 Canister half - Pass Details

Date: 04 December 2021
Orbit: 1516 x 1684 km, 47.2° (Epoch: 18 January)

Event Time Altitude Azimuth Distance (km) Brightness Sun altitude
Rises 06:07:45 0° 184° (S) 4,705 11.6 -28.9°
Reaches altitude 10° 06:11:48 10° 169° (S) 3,751 11.2 -28.2°
Maximum altitude 06:18:14 21° 126° (SE) 3,041 11.1 -27.0°
Drops below altitude 10° 06:24:49 10° 83° (E) 3,855 12.0 -25.8°
Sets 06:29:01 0° 68° (ENE) 4,873 12.6 -25.1°
